Sabillasville, MD

10:05 PM EST on January 20, 2017 (GMT -0500)
Thurmont

Weather History for KRSP - September, 2013

Change the Weather History Date:

Thursday, September 5, 2013

  Actual Average (KHGR) Record (KHGR)
Temperature  
Mean Temperature 67 °F -  
Max Temperature 75 °F 78 °F 90 °F (2016)
Min Temperature 59 °F 59 °F 50 °F (1997)
Cooling Degree Days 2    
Growing Degree Days 17 (Base 50)    
Moisture  
Dew Point 52 °F    
Average Humidity 63    
Maximum Humidity 78    
Minimum Humidity 37    
Precipitation  
Precipitation 0.00 in - - ()
Sea Level Pressure  
Sea Level Pressure 30.09 in    
Wind  
Wind Speed 9 mph (NW)    
Max Wind Speed 15 mph    
Max Gust Speed 29 mph    
Visibility 10 miles    
Events      
Averages and records for this station are not official NWS values.
T = Trace of Precipitation, MM = Missing Value Source: NWS Daily Summary

Daily Weather History Graph

Daily Weather History Graph

Search for Another Location

Airport or City:

Trip Planner

Search our weather history database for the weather conditions in past years. The results will help you decide how hot, cold, wet, or windy it might be!

Date:

Astronomy

Sep. 05, 2013 Rise Set
Actual Time 6:41 AM EDT 7:34 PM EDT
Civil Twilight 6:14 AM EDT 8:01 PM EDT
Nautical Twilight 5:41 AM EDT 8:34 PM EDT
Astronomical Twilight 5:08 AM EDT 9:07 PM EDT
Moon 6:51 AM EDT (9/5) 7:25 PM EDT (9/5)
Length of Visible Light 13h 47m
Length of Day
12h 52m
New Moon, 0% of the Moon is Illuminated
Sep 5
New Moon
Sep 12
First Quarter
Sep 19
Full
Sep 26
Last Quarter
Oct 4
New

Hourly Weather History & Observations

Time (EDT) Temp. Dew Point Humidity Pressure Visibility Wind Dir Wind Speed Gust Speed Precip Events Conditions
12:54 AM 60.1 °F 52.0 °F 75% 30.09 in 10.0 mi NW 6.9 mph - N/A   Clear
1:54 AM 61.0 °F 53.1 °F 75% 30.08 in 10.0 mi NW 6.9 mph - N/A   Clear
2:54 AM 62.1 °F 53.1 °F 72% 30.05 in 10.0 mi NW 10.4 mph 21.9 mph N/A   Clear
3:54 AM 61.0 °F 53.1 °F 75% 30.05 in 10.0 mi NW 11.5 mph 20.7 mph N/A   Clear
4:54 AM 61.0 °F 53.1 °F 75% 30.06 in 10.0 mi WNW 11.5 mph 24.2 mph N/A   Clear
6:54 AM 61.0 °F 54.0 °F 78% 30.06 in 10.0 mi NW 12.7 mph 24.2 mph N/A   Clear
7:54 AM 63.0 °F 54.0 °F 72% 30.07 in 10.0 mi NW 15.0 mph 28.8 mph N/A   Clear
8:54 AM 64.9 °F 55.0 °F 70% 30.07 in 10.0 mi NW 12.7 mph 24.2 mph N/A   Clear
9:54 AM 66.9 °F 57.0 °F 70% 30.09 in 10.0 mi NNW 12.7 mph 24.2 mph N/A   Clear
10:54 AM 69.1 °F 57.0 °F 65% 30.09 in 10.0 mi NNW 12.7 mph 24.2 mph N/A   Clear
12:54 PM 69.1 °F 57.9 °F 68% 30.10 in 9.0 mi NW 9.2 mph - N/A   Mostly Cloudy
1:08 PM 68.0 °F 57.2 °F 68% 30.10 in 9.0 mi Variable 3.5 mph - N/A   Mostly Cloudy
1:54 PM 70.0 °F 57.9 °F 65% 30.09 in 10.0 mi NNW 8.1 mph - N/A   Mostly Cloudy
3:54 PM 75.0 °F 52.0 °F 44% 30.07 in 10.0 mi Variable 5.8 mph 18.4 mph N/A   Partly Cloudy
4:54 PM 73.9 °F 46.0 °F 37% 30.08 in 10.0 mi NNW 8.1 mph 21.9 mph N/A   Clear
5:54 PM 72.0 °F 46.9 °F 41% 30.09 in 10.0 mi Variable 5.8 mph 20.7 mph N/A   Clear
6:54 PM 66.9 °F 45.0 °F 45% 30.11 in 10.0 mi NNW 9.2 mph 25.3 mph N/A   Clear
9:54 PM 59.0 °F 45.0 °F 60% 30.16 in 10.0 mi NNW 8.1 mph - N/A   Clear
10:54 PM 59.0 °F 44.1 °F 58% 30.17 in 10.0 mi Variable 4.6 mph - N/A   Clear
11:54 PM 59.0 °F 43.0 °F 55% 30.19 in 10.0 mi ENE 4.6 mph - N/A   Clear